User: anonymous   Login
Location: Dodgeville, WI 53533, USA
(43.0344°N, 90.0900°W)
Time: 23:46:03
(UTC-06:00)
Language:

ISS - Orbit

View from above orbital plane
View from above orbital plane
View from above satellite
View from above satellite

Ground track
Ground track

The orbit data is extracted from the following two-line orbital elements,

1 25544U 98067A   21067.88615741  .00000751  00000-0  21765-4 0  9994
2 25544  51.6448 118.8165 0003391  83.5674 255.8237 15.49048759273049
Epoch (UTC): 08 March 2021 21:16:04
Eccentricity: 0.0003391
inclination: 51.6448°
perigee height: 417 km
apogee height: 422 km
right ascension of ascending node: 118.8165°
argument of perigee: 83.5674°
revolutions per day: 15.49048759
mean anomaly at epoch: 255.8237°
orbit number at epoch: 27304

The dashed part of the orbit path shows where the satellite is in the earth's shadow,  

DLR